Regional Weather Roundup
Issued by NWS Midland/Odessa, TX

Skip options and go directly to product.
Home | Oldest Version | Previous Version | Current Version | All | Graphics & Text | Save Text | Print | Product List | Glossary On

Skip product version selection by date and time.   
423
ASUS44 KMAF 230610
RWRMAF
MIDLAND AREA WEATHER ROUNDUP
NATIONAL WEATHER SERVICE MIDLAND TX
100 AM CDT THU OCT 23 2014

...IN SOUTHWEST TEXAS AND SOUTHEAST NEW MEXICO...

CITY           SKY/WX    TMP DP  RH WIND       PRES   REMARKS
ALPINE         CLEAR     59  57  92 SW8       30.24S
ANDREWS        FAIR      56  54  91 S6        30.14S
ARTESIA        NOT AVBL
BIG SPRING     CLEAR     59  54  84 S6        30.16S
CARLSBAD       CLEAR     62  59  90 S7        30.11S
DRYDEN           N/A     62  59  90 SE3       30.12
FORT STOCKTON  CLEAR     61  58  90 S12       30.12F
GUAD PASS      CLEAR     58  56  93 NE6       30.24R
HOBBS          CLEAR     54  54 100 S5        30.15F
MARFA          MOCLDY    57  55  94 CALM      30.23F
MIDLAND AIRPK  CLEAR     58  54  84 SE6       30.14S
MIDLAND INTL   PTCLDY    59  53  80 S6        30.13F
ODESSA         PTCLDY    60  55  83 S8        30.13F
PECOS          CLEAR     60  58  92 E6        30.09F
PRESIDIO       FAIR      67  60  80 NE12      30.12S
SEMINOLE       CLEAR     54  53  96 S3        30.15S
SNYDER         PTCLDY    58  55  92 S3        30.14S
WINK           CLEAR     60  57  89 E8        30.10S
$$
...OTHER STATIONS IN TEXAS...

CITY           SKY/WX    TMP DP  RH WIND       PRES   REMARKS
ABILENE        CLEAR     60  55  83 S3        30.11S
AMARILLO       CLOUDY    61  59  93 S21       30.12F
AUSTIN         LGT RAIN  68  61  78 CALM      30.09S
BROWNSVILLE    CLEAR     73  68  84 NE3       30.02F
CORPUS CHRISTI PTCLDY    72  64  76 E5        30.05F
DALLAS FTW     CLOUDY    70  52  52 SE12      30.10S
DEL RIO        PTCLDY    65  64  97 CALM      30.09F FOG
EL PASO        CLEAR     63  55  75 CALM      30.13S
HOUSTON INT    PTCLDY    63  58  83 E8        30.08S
LUBBOCK        MOCLDY    58  56  93 S10       30.14R FOG
SAN ANGELO     PTCLDY    59  56  89 CALM      30.12F
SAN ANTONIO    CLOUDY    72  58  61 SE8       30.10S
WACO           CLOUDY    66  58  75 SE5       30.09F
WICHITA FALLS  NOT AVBL
$$
...OTHER LOCATIONS IN NEW MEXICO...

CITY           SKY/WX    TMP DP  RH WIND       PRES   REMARKS
ALAMAGORDO     NOT AVBL
ALBUQUERQUE    CLEAR     61  43  51 E3        30.20S
CANNON AFB     CLEAR     54  54  98 S7        30.14F FOG
CLOVIS         CLOUDY    57  55  94 S14       30.16F
HOLLOMAN AFB   CLEAR     56  49  78 E7        30.13F
ROSWELL        CLEAR     59  57  93 S7        30.11F
RUIDOSO        CLEAR     46  39  76 SW6       30.29S
SANTA FE       CLEAR     50  36  58 W7        30.23R
TRUTH OR CONSE CLEAR     59  51  75 W5        30.16F
TUCUMCARI      CLEAR     61  54  77 S9        30.10R
$$

USA.gov is the U.S. government's official web portal to all federal, state and local government web resources and services.